Location: Newark
(37.8333°N, 119.5000°W)
Time: 09:03:00
(UTC+00:00)

Vanguard 1 - All Passes

Search period start: 21 August 2019 00:00
Search period end: 31 August 2019 00:00
Orbit: 655 x 3829 km, 34.2° (Epoch: 20 August)

Date Brightness Start Highest point End Pass type
(mag) Time Alt. Az. Time Alt. Az. Time Alt. Az.
21 Aug - 00:13:39 10° W 00:18:40 31° SSW 00:26:23 10° SE daylight
21 Aug - 02:36:55 10° SW 02:40:10 12° SSW 02:44:01 10° S daylight
21 Aug - 17:35:24 10° SSW 17:39:57 22° SSE 17:43:35 10° ESE daylight
21 Aug - 19:55:09 10° WSW 19:59:41 51° S 20:04:11 10° E daylight
21 Aug - 22:15:01 10° W 22:19:24 49° S 22:25:29 10° ESE daylight
22 Aug - 00:35:01 10° WSW 00:39:46 24° SSW 00:46:41 10° SSE daylight
22 Aug - 17:55:46 10° SW 18:00:55 30° SSE 18:04:55 10° E daylight
22 Aug - 20:16:07 10° WSW 20:20:37 56° S 20:25:14 10° E daylight
22 Aug - 22:36:01 10° W 22:40:22 40° SSW 22:46:26 10° SE daylight
23 Aug - 00:56:48 10° WSW 01:00:55 17° SSW 01:06:24 10° SSE daylight
23 Aug - 15:57:16 10° S 16:01:32 15° SSE 16:04:55 10° ESE daylight
23 Aug - 18:16:27 10° SW 18:21:52 38° SSE 18:26:03 10° E daylight
23 Aug - 20:37:07 10° W 20:41:33 56° S 20:46:17 10° ESE daylight
23 Aug - 22:57:06 10° W 23:01:20 32° SSW 23:07:11 10° SE daylight
24 Aug - 01:19:46 10° SW 01:22:05 12° SSW 01:24:44 10° S daylight
24 Aug - 16:16:48 10° SSW 16:22:39 22° SSE 16:26:52 10° ESE daylight
24 Aug - 18:37:21 10° WSW 18:42:49 47° S 18:47:05 10° E daylight
24 Aug - 20:58:08 10° W 21:02:29 51° S 21:07:18 10° ESE daylight
24 Aug - 23:18:23 10° WSW 23:22:20 24° SSW 23:27:38 10° SSE daylight
25 Aug - 14:21:30 10° SSE 14:22:28 10° SSE 14:23:24 10° SSE daylight
25 Aug - 16:37:01 10° SW 16:43:43 29° SSE 16:48:16 10° ESE daylight
25 Aug - 18:58:23 10° WSW 19:03:45 54° S 19:08:05 10° E daylight
25 Aug - 21:19:11 10° W 21:23:24 43° SSW 21:28:13 10° ESE daylight
25 Aug - 23:40:01 10° WSW 23:43:22 17° SSW 23:47:33 10° SSE daylight
26 Aug - 14:38:01 10° S 14:43:44 16° SSE 14:48:03 10° ESE daylight
26 Aug - 16:57:39 10° SW 17:04:45 37° SSE 17:09:26 10° E daylight
26 Aug - 19:19:28 10° WSW 19:24:42 58° S 19:29:03 10° E daylight
26 Aug - 21:40:17 10° W 21:44:18 34° SSW 21:49:00 10° SE daylight
27 Aug - 00:02:48 10° SW 00:04:25 11° SSW 00:06:11 10° S daylight
27 Aug - 14:57:16 10° SSW 15:04:57 22° SSE 15:10:11 10° ESE daylight
27 Aug - 17:18:33 10° WSW 17:25:45 46° SSE 17:30:28 10° E daylight
27 Aug - 19:40:36 10° W 19:45:38 56° S 19:49:59 10° ESE daylight
27 Aug - 22:01:31 10° WSW 22:05:13 25° SSW 22:09:32 10° SE daylight
28 Aug - 13:02:06 10° SSE 13:04:03 10° SSE 13:05:51 10° SE visible
28 Aug - 15:17:18 10° SW 15:26:07 29° SSE 15:31:43 10° E daylight
28 Aug - 17:39:38 10° WSW 17:46:45 54° S 17:51:26 10° E daylight
28 Aug - 20:01:44 10° W 20:06:33 50° S 20:10:53 10° ESE daylight
28 Aug - 22:23:02 10° WSW 22:26:07 18° SSW 22:29:40 10° SSE daylight
29 Aug - 13:18:08 10° S 13:25:25 16° SSE 13:30:52 10° ESE daylight
29 Aug - 15:37:48 10° SW 15:47:15 37° SSE 15:52:57 10° E daylight
29 Aug - 18:00:49 10° WSW 18:07:44 60° S 18:12:22 10° E daylight
29 Aug - 20:22:53 10° W 20:27:27 41° SSW 20:31:40 10° SE daylight
29 Aug - 22:45:20 10° SW 22:47:02 12° SSW 22:48:52 10° S daylight
30 Aug - 13:36:57 10° SSW 13:46:44 23° SSE 13:53:17 10° ESE daylight
30 Aug - 15:58:39 10° SW 16:08:21 46° SSE 16:14:01 10° E daylight
30 Aug - 18:22:05 10° W 18:28:42 62° S 18:33:16 10° ESE daylight
30 Aug - 20:44:07 10° W 20:48:18 31° SSW 20:52:18 10° SE daylight
